LiveATC.Net - Listen to live air traffic control over the Internet!


ICAO: CZBB  IATA: YDT   Airport: Boundary Bay Airport
City: Boundary Bay   State/Province: British Columbia
Country: Canada   Continent: North America
CYVR METAR Weather: CYVR 140900Z 00000KT 20SM FEW140 SCT200 BKN240 05/05 A3005 RMK AC1CC2CS4 SLP178
CZBB Flight Activity (FlightAware)

CZBB Tower (Inner)
Feed Status: UP   Listeners: 0
Listen in your browser - HTML5 player (in browser, HTML5)
Click here to listen with your own player (launches your MP3 player)
Archive Access: CZBB Tower (Inner)
FacilityFrequency
Boundary Bay Tower (Inner)118.100

NOTICE

Unauthorized use prohibited. See LiveATC.net Terms of Service


Airport/ARTCC Code
Frequency Search
(e.g., 124.400, 128.75)
Site-wide search
 


Browse LiveATC Feeds
Top 50 LiveATC Feeds
LiveATC Feed Map
Bad Weather Areas

LiveATC FAQ
Offer LiveATC feed
Contact LiveATC.net
Press Inquiries

LiveATC on iPhone
LiveATC on Android

Windows Phone
Windows 8/10

LiveATC Mobile
(Mobile browser)

ATC Audio Archives
Interesting Recordings

LiveATC Forums


Home Page
About LiveATC.net
Make a Donation
Terms of Use
Privacy Policy

Canadian Air Freqs

AIRMETs/SIGMETs

FAA Airport Status
Nat'l Airspace Status
Arrival Demand Charts


Server Software By:
Icecast.org
Liquidsoap